This is the latest recevied weather packets stored in our database for station/object W3EJE-13. If no packets are shown the sender has not sent any weather packets the latest 10 day(s).
| Time | Temp. | Humidity | Pressure | Rain* | Wind** | Luminosity | Snow |
|---|---|---|---|---|---|---|---|
| 1777393554 | 12.78° C | 93% | 1017.6 hPa | 0 mm | - | 126 W/m² | - |
| 1777393250 | 12.78° C | 93% | 1017.7 hPa | 0 mm | - | 111 W/m² | - |
| 1777392947 | 12.78° C | 93% | 1017.7 hPa | 0 mm | - | 178 W/m² | - |
| 1777392642 | 12.22° C | 93% | 1017.4 hPa | 0 mm | - | 194 W/m² | - |
| 1777392338 | 12.78° C | 93% | 1017.8 hPa | 0 mm | - | 147 W/m² | - |
| 1777392038 | 12.78° C | 93% | 1017.4 hPa | 0 mm | - | 201 W/m² | - |
| 1777391733 | 12.22° C | 94% | 1017.8 hPa | 0 mm | - | 227 W/m² | - |
| 1777391431 | 12.22° C | 94% | 1017.8 hPa | 0 mm | - | 195 W/m² | - |
| 1777391127 | 11.67° C | 94% | 1017.9 hPa | 0 mm | - | 110 W/m² | - |
| 1777390823 | 11.67° C | 94% | 1017.9 hPa | 0 mm | - | 107 W/m² | - |
| 1777390520 | 11.67° C | 94% | 1018 hPa | 0 mm | - | 108 W/m² | - |
| 1777390216 | 11.67° C | 94% | 1017.9 hPa | 0 mm | - | 84 W/m² | - |
| 1777389913 | 11.67° C | 95% | 1018 hPa | 0 mm | - | 106 W/m² | - |
| 1777389610 | 11.67° C | 95% | 1018 hPa | 0 mm | - | 114 W/m² | - |
| 1777389306 | 11.11° C | 95% | 1018 hPa | 0 mm | - | 150 W/m² | - |
| 1777389004 | 11.11° C | 95% | 1018 hPa | 0 mm | - | 79 W/m² | - |
| 1777388701 | 10.56° C | 95% | 1017.9 hPa | 0 mm | - | 115 W/m² | - |
| 1777388397 | 10.56° C | 95% | 1018 hPa | 0 mm | - | 72 W/m² | - |
| 1777388097 | 10.56° C | 96% | 1018.3 hPa | 0 mm | - | 48 W/m² | - |
| 1777387793 | 10.56° C | 96% | 1018.2 hPa | 0 mm | - | 38 W/m² | - |
| 1777387490 | 10.56° C | 95% | 1018.1 hPa | 0 mm | - | 67 W/m² | - |
| 1777387185 | 10.56° C | 96% | 1017.9 hPa | 0 mm | - | 55 W/m² | - |
| 1777386881 | 10.56° C | 96% | 1018.1 hPa | 0 mm | - | 88 W/m² | - |
| 1777386578 | 10.56° C | 96% | 1018 hPa | 0 mm | - | 69 W/m² | - |
| 1777386274 | 10.56° C | 96% | 1018 hPa | 0 mm | - | 71 W/m² | - |
* Rain latest hour (hover to see other rain measurements)
** Current wind speed in m/s (hover to see current wind gust speed)